Meteo Giornale » Osservazioni meteo Stati Uniti (USA) » Metlakatla
ore: 12:56 - Osservazioni Meteo Metlakatla
Lat. 55° 7' N Lon. 131° 35' W Alt. 0 metri s.l.m.
14 °C
Coperto
Temp. 24 Ore
12 °C
16 °C
Sud/Sud-Est
11.1 Km/h
Dew point 12 °C
Umidità 87 %
Visibilità 10 Km
Il sole sorge alle ore 05:51
Il sole tramonta alle ore 19:41
| Data e Ora | Cielo e Fenomeni | T °C | DP °C | Um. % | Pres. hPa | Vis. km | Vento km/h | |
|---|---|---|---|---|---|---|---|---|
| Oggi h: 12:56 | Coperto | 14 | 12 | 87 | 1007 | 10 | S/SE 11.1 | |
| Oggi h: 11:56 | Coperto | 14 | 12 | 87 | 1008 | 10 | N 9.3 | |
| Oggi h: 11:39 | Coperto | 14 | 12 | 87 | 1008 | 10 | S/SO 7.4 | |
| Oggi h: 11:16 | Coperto | 14 | 12 | 87 | 1008 | 10 | S/SO 9.3 | |
| Oggi h: 10:56 | Coperto | 14 | 12 | 87 | 1008 | 10 | O/SO 13 | |
| Oggi h: 09:56 | Coperto | 13 | 13 | 100 | 1007 | 10 | O/SO 7.4 | |
| Oggi h: 09:51 | Coperto | 13 | 13 | 100 | 1008 | 10 | N 5.5 | |
| Oggi h: 09:23 | Coperto | 13 | 12 | 93 | 1008 | 10 | N 5.5 | |
| Oggi h: 09:05 | Coperto | 13 | 12 | 93 | 1008 | 10 | O/SO 7.4 | |
| Oggi h: 08:56 | Coperto | 13 | 12 | 93 | 1007 | 10 | O 7.4 | |
| Oggi h: 07:56 | Pioggia | 13 | 12 | 93 | 1007 | 10 | N 0 | |
| Oggi h: 07:08 | Pioggia | 13 | 12 | 93 | 1008 | 14 | N 0 | |
| Oggi h: 06:56 | Pioggia Foschia | 13 | 12 | 93 | 1008 | 8 | N 0 | |
| Oggi h: 06:52 | Pioggia Foschia | 13 | 12 | 93 | 1008 | 8 | N 0 | |
| Oggi h: 06:20 | Foschia | 12 | 12 | 100 | 1008 | 8 | N 0 | |
| Oggi h: 06:07 | Pioggia Foschia | 12 | 12 | 100 | 1008 | 10 | N 5.5 | |
| Oggi h: 05:56 | Pioggia | 12 | 12 | 100 | 1008 | 11 | N 0 | |
| Oggi h: 05:54 | Pioggia | 12 | 12 | 100 | 1008 | 11 | N 0 | |
| Oggi h: 05:23 | Pioggia | 13 | 12 | 93 | 1008 | 11 | N 0 | |
| Oggi h: 05:09 | Pioggia Foschia | 12 | 12 | 100 | 1008 | 8 | N 0 | |
| Oggi h: 04:56 | Pioggia | 12 | 12 | 100 | 1008 | 10 | N 0 | |
| Oggi h: 03:56 | Coperto | 12 | 12 | 100 | 1009 | 10 | N 0 | |
| Oggi h: 02:56 | Coperto | 12 | 12 | 100 | 1009 | 10 | N 0 | |
| Oggi h: 01:56 | Coperto | 13 | 12 | 93 | 1009 | 10 | N 0 | |
| Oggi h: 01:46 | Coperto | 13 | 12 | 93 | 1010 | 10 | N 0 | |
| Oggi h: 01:38 | Coperto | 13 | 12 | 93 | 1010 | 10 | N 0 | |
| Oggi h: 01:12 | Coperto | 13 | 12 | 93 | 1010 | 10 | N 5.5 | |
| Oggi h: 00:56 | Coperto | 13 | 12 | 93 | 1010 | 10 | N 5.5 | |
| Oggi h: 00:24 | Coperto | 13 | 12 | 93 | 1010 | 10 | N 7.4 | |
| Ieri h: 23:56 | Coperto | 13 | 12 | 93 | 1010 | 10 | N 5.5 | |
| Ieri h: 22:56 | Coperto | 13 | 12 | 93 | 1011 | 10 | N 0 | |
| Ieri h: 22:52 | Coperto | 13 | 12 | 93 | 1011 | 10 | N 0 | |
| Ieri h: 22:43 | Coperto | 13 | 12 | 93 | 1011 | 10 | N 0 | |
| Ieri h: 21:56 | Coperto | 13 | 12 | 93 | 1011 | 10 | N 0 | |
| Ieri h: 20:56 | Coperto | 13 | 11 | 87 | 1012 | 10 | N 0 | |
| Ieri h: 19:56 | Molto Nuvoloso | 13 | 11 | 87 | 1012 | 10 | S 9.3 | |
| Ieri h: 18:56 | Coperto | 14 | 12 | 87 | 1011 | 10 | S/SE 9.3 | |
| Ieri h: 17:56 | Coperto | 15 | 12 | 82 | 1011 | 10 | S/SE 11.1 | |
| Ieri h: 16:56 | Coperto | 16 | 11 | 72 | 1011 | 10 | S 9.3 | |
| Ieri h: 15:56 | Coperto | 16 | 11 | 72 | 1012 | 10 | S/SE 11.1 | |
| Ieri h: 14:56 | Coperto | 16 | 12 | 77 | 1012 | 10 | S/SE 11.1 | |
| Ieri h: 14:18 | Coperto | 16 | 12 | 77 | 1012 | 10 | S/SE 13 | |
| Ieri h: 13:56 | Molto Nuvoloso | 16 | 13 | 82 | 1012 | 10 | S/SE 14.8 | |
| Ieri h: 13:45 | Coperto | 16 | 13 | 82 | 1012 | 10 | S 13 | |



